Fes-Sais, Morocco

9:56 AM WEST on April 26, 2017 (GMT +0100)
Fes-Sais

Weather History for GMFF - August, 2013

Change the Weather History Date:

Saturday, August 31, 2013

  Actual Average Record
Temperature  
Mean Temperature 78 °F -  
Max Temperature 91 °F 83 °F 104 °F (2006)
Min Temperature 65 °F 59 °F 55 °F (2001)
Cooling Degree Days 13    
Growing Degree Days 28 (Base 50)    
Moisture  
Dew Point 53 °F    
Average Humidity 44    
Maximum Humidity 64    
Minimum Humidity 14    
Precipitation  
Precipitation 0.00 in 0.02 in - ()
Sea Level Pressure  
Sea Level Pressure 30.06 in    
Wind  
Wind Speed 7 mph ()    
Max Wind Speed 16 mph    
Max Gust Speed 38 mph    
Visibility 6.0 miles    
Events      
Averages and records for this station are not official NWS values.
T = Trace of Precipitation, MM = Missing Value Source: Averaged Metar Reports

Daily Weather History Graph

Daily Weather History Graph

Search for Another Location

Airport or City:

Trip Planner

Search our weather history database for the weather conditions in past years. The results will help you decide how hot, cold, wet, or windy it might be!

Date:

Astronomy

Aug. 31, 2013 Rise Set
Actual Time 6:52 AM WEST 7:46 PM WEST
Civil Twilight 6:27 AM WEST 8:12 PM WEST
Nautical Twilight 5:57 AM WEST 8:42 PM WEST
Astronomical Twilight 5:25 AM WEST 9:13 PM WEST
Moon 2:17 AM WEST (8/31) 4:28 PM WEST (8/31)
Length of Visible Light 13h 45m
Length of Day
12h 54m
Waning Crescent, 23% of the Moon is Illuminated
Aug 31
Waning Crescent
Sep 5
New
Sep 12
First Quarter
Sep 19
Full
Sep 27
Last Quarter

Hourly Weather History & Observations

Time (WEST) Temp. Heat Index Dew Point Humidity Pressure Visibility Wind Dir Wind Speed Gust Speed Precip Events Conditions
12:00 AM 73.4 °F - 57.2 °F 57% 30.12 in - Variable 3.5 mph - N/A   Clear
1:30 AM 69.8 °F - 55.4 °F 60% 30.09 in - Calm Calm - N/A   Clear
2:00 AM 68.0 °F - 55.4 °F 64% 30.09 in - Calm Calm - N/A   Clear
3:00 AM 66.2 °F - 53.6 °F 64% 30.09 in - Variable 2.3 mph - N/A   Clear
4:00 AM 66 °F - 54 °F 57% 30.05 in 6 mi SSE 6.9 mph - -  
4:00 AM 66.2 °F - 53.6 °F 64% 30.09 in - SSE 6.9 mph - N/A   Clear
5:00 AM 68.0 °F - 53.6 °F 60% 30.06 in - ENE 8.1 mph - N/A   Clear
6:00 AM 68.0 °F - 53.6 °F 60% 30.06 in 6.2 mi ENE 6.9 mph - N/A   Partly Cloudy
7:00 AM 68 °F - 55 °F 54% 30.05 in 6 mi NE 6.9 mph - -   Scattered Clouds
7:00 AM 68.0 °F - 55.4 °F 64% 30.09 in 6.2 mi NE 6.9 mph - N/A   Partly Cloudy
8:00 AM 69.8 °F - 55.4 °F 60% 30.09 in 6.2 mi NE 10.4 mph - N/A   Partly Cloudy
9:00 AM 73.4 °F - 57.2 °F 57% 30.09 in - ENE 9.2 mph - N/A   Clear
10:00 AM 77 °F - 56 °F 39% 30.03 in 6 mi NE 11.5 mph - -   Scattered Clouds
10:00 AM 77.0 °F - 57.2 °F 50% 30.09 in 6.2 mi ENE 11.5 mph - N/A   Partly Cloudy
11:00 AM 82.4 °F 82.0 °F 57.2 °F 42% 30.09 in 6.2 mi ENE 15.0 mph - N/A   Partly Cloudy
12:00 PM 86.0 °F 84.5 °F 55.4 °F 35% 30.09 in 6.2 mi ENE 13.8 mph - N/A   Partly Cloudy
1:00 PM 87 °F - 53 °F 21% 29.96 in 6 mi ENE 16.1 mph - -   Scattered Clouds
1:00 PM 87.8 °F 85.7 °F 53.6 °F 31% 30.06 in 6.2 mi ENE 16.1 mph - N/A   Partly Cloudy
2:00 PM 87.8 °F - 48.2 °F 25% 30.06 in - NE 16.1 mph - N/A   Clear
3:00 PM 89.6 °F - 48.2 °F 24% 30.04 in 6.2 mi NE 12.7 mph - N/A   Partly Cloudy
4:00 PM 89 °F - 46 °F 14% 29.91 in 5 mi ENE 12.7 mph - -   Scattered Clouds
4:00 PM 89.6 °F - 46.4 °F 22% 30.04 in 6.2 mi ENE 11.5 mph 25.3 mph N/A   Partly Cloudy
5:00 PM 89.6 °F - 46.4 °F 22% 30.04 in 6.2 mi ENE 12.7 mph - N/A   Partly Cloudy
7:00 PM 86 °F - 49 °F 18% 29.93 in 5 mi ENE 13.8 mph - -   Scattered Clouds
7:00 PM 84.2 °F - 50.0 °F 30% 30.04 in 6.2 mi ENE 13.8 mph - N/A   Partly Cloudy
8:00 PM 80.6 °F - 51.8 °F 37% 30.06 in 6.2 mi ENE 11.5 mph - N/A   Partly Cloudy
9:00 PM 78.8 °F - 53.6 °F 42% 30.06 in - ENE 16.1 mph 38.0 mph N/A   Clear
10:00 PM 77.0 °F - 55.4 °F 47% 30.09 in - ENE 9.2 mph - N/A   Clear
11:00 PM 75.2 °F - 57.2 °F 53% 30.09 in - ENE 9.2 mph - N/A   Clear